Regional Weather Roundup
Issued by NWS

Home | Current Version | Previous Version | Graphics & Text | Print | Product List | Glossary On
Versions: 1 2 3 4 5 6 7 8 9 10 11 12 13 14 15 16 17 18 19 20 21 22 23 24 25 26 27 28 29 30 31 32 33 34 35 36 37 38 39 40 41 42 43 44 45 46 47 48 49 50
000
ASUS43 KFSD 160702
RWRSD

WEATHER ROUNDUP FOR SOUTH DAKOTA
NATIONAL WEATHER SERVICE SIOUX FALLS SD
200 AM CDT WED APR 16 2014

NOTE: "FAIR" INDICATES FEW OR NO CLOUDS BELOW 12,000 FEET WITH NO
SIGNIFICANT WEATHER AND/OR OBSTRUCTIONS TO VISIBILITY.


SDZ001>005-009-010-012>017-160800-
NORTHWEST AND NORTH CENTRAL SOUTH DAKOTA

CITY           SKY/WX    TMP DP  RH WIND       PRES   REMARKS
BUFFALO          N/A     38  25  59 NE10      29.57S
MOBRIDGE       CLOUDY    34  19  54 E28G36    29.64R WCI  21
$$

SDZ012>016-024>037-041>051-057-063-072>074-160800-
SOUTHWEST AND SOUTH CENTRAL SOUTH DAKOTA

CITY           SKY/WX    TMP DP  RH WIND       PRES   REMARKS
RAPID CTY ARPT CLOUDY    41  38  89 NW18G26   29.60S
PIERRE         CLOUDY    40  28  62 NE25      29.51F
CUSTER         CLOUDY    36  33  89 N6        29.59S
ELLSWORTH AFB  CLOUDY    41  39  93 NW18      29.61R
PHILIP         CLOUDY    46  29  51 N20       29.53R
PINE RIDGE     CLOUDY    48  35  60 N20G29    29.57R
WINNER         FAIR      55  28  35 S14       29.48F
$$

SDZ004>011-016>023-039-040-160800-
NORTHEAST SOUTH DAKOTA

CITY           SKY/WX    TMP DP  RH WIND       PRES   REMARKS
ABERDEEN       CLOUDY    32  20  61 E18       29.74F WCI  20
WATERTOWN      CLOUDY    32  21  64 E20G29    29.73F WCI  20
SISSETON         N/A     32  15  49 SE18      29.85F WCI  20
$$

SDZ017-020-022-023-036>040-048>070-160800-
SOUTHEAST SOUTH DAKOTA

CITY           SKY/WX    TMP DP  RH WIND       PRES   REMARKS
SIOUX FALLS    CLOUDY    41  27  57 SE16      29.69F
HURON          CLOUDY    41  26  55 SE22G32   29.60F
CHAMBERLAIN      N/A     46  30  53 SE15      29.51F
MITCHELL       CLOUDY    42  29  59 SE16      29.60F
YANKTON        MOCLDY    43  28  56 SE13      29.65F
$$

ABBREVIATIONS USED IN REMARKS
   TC - TEMPERATURE IN CELSIUS
  WCI - WIND CHILL INDEX
   HX - HEAT INDEX
  VSB - VISIBILITY




USA.gov is the U.S. government's official web portal to all federal, state and local government web resources and services.